QPF
0.00 0.00 0.00 0.00 0.00 0.00 0.00 0.00 0.00 0.00 0.00 0.00 0.00 0.00 0.00 0.00 0.00 0.00 0.00 0.00 0.00 0.00 0.01 0.01 0.00 0.00 0.00 0.00 0.00 0.00 0.00 0.00 0.00 0.00 0.00 0.00 0.00 0.00 0.00 0.00 0.00 0.00 0.00
0.00 0.00 0.00 0.00 0.00 0.00 0.00 0.00 0.00 0.00 0.00 0.00 0.00 0.00 0.00 0.00 0.00 0.00 0.00 0.00 0.00 0.00 0.00 0.00 0.00 0.00 0.00 0.00 0.00 0.00 0.00 0.00 0.00 0.00 0.00 0.00 0.00 0.00 0.00 0.00 0.00 0.00 0.00
0.00 0.00 0.00 0.00 0.00 0.00 0.00 0.00 0.00 0.00 0.00 0.00 0.00 0.00 0.00 0.00 0.00 0.00 0.00 0.00 0.00 0.00 0.00 0.00 0.00 0.00 0.00 0.00 0.00 0.00 0.00 0.00 0.00 0.00 0.00 0.00 0.00 0.00 0.00 0.00 0.00 0.00 0.00
0.00 0.00 0.00 0.00 0.00 0.00 0.00 0.00 0.00 0.00 0.00 0.00 0.00 0.00 0.00 0.00 0.00 0.00 0.00 0.00 0.00 0.00 0.00 0.00 0.00 0.00 0.00 0.00 0.00 0.00 0.00 0.00 0.00 0.00 0.00 0.00 0.00 0.00 0.00 0.00 0.00 0.00 0.00
0.00 0.00 0.00 0.00 0.00 0.00 0.00 0.00 0.00 0.00 0.00 0.00 0.00 0.00 0.00 0.00 0.00 0.00 0.00 0.00 0.00 0.00 0.00 0.00 0.00 0.00 0.00 0.00 0.00 0.00 0.00 0.00 0.00 0.00 0.00 0.00 0.00 0.00 0.00 0.00 0.00 0.00 0.00
0.00 0.00 0.00 0.00 0.00 0.00 0.00 0.00 0.00 0.00 0.00 0.00 0.00 0.00 0.00 0.00 0.00 0.00 0.00 0.00 0.00 0.00 0.00 0.00 0.00 0.00 0.00 0.00 0.00 0.00 0.00 0.00 0.00 0.00 0.00 0.00 0.00 0.00 0.00 0.00 0.00 0.00 0.00
0.00 0.00 0.00 0.00 0.00 0.00 0.00 0.00 0.00 0.00 0.00 0.00 0.00 0.00 0.00 0.00 0.00 0.00 0.00 0.00 0.00 0.00 0.00 0.00 0.00 0.00 0.00 0.00 0.00 0.00 0.00 0.00 0.00 0.00 0.00 0.00 0.00 0.00 0.00 0.00 0.00 0.00 0.00
0.00 0.00 0.00 0.00 0.00 0.00 0.00 0.00 0.00 0.00 0.00 0.00 0.00 0.00 0.00 0.00 0.00 0.00 0.00 0.00 0.00 0.00 0.00 0.00 0.00 0.00 0.00 0.00 0.00 0.00 0.00 0.00 0.00 0.00 0.00 0.00 0.00 0.00 0.00 0.00 0.00 0.00 0.00
0.00 0.00 0.00 0.00 0.00 0.00 0.00 0.00 0.00 0.00 0.00 0.00 0.00 0.00 0.00 0.00 0.00 0.00 0.00 0.00 0.00 0.00 0.00 0.00 0.00 0.00 0.00 0.00 0.00 0.00 0.00 0.00 0.00 0.00 0.00 0.00 0.00 0.00 0.00 0.00 0.00 0.00 0.00
0.00 0.00 0.00 0.00 0.00 0.00 0.00 0.00 0.00 0.00 0.00 0.00 0.00 0.00 0.00 0.00 0.00 0.00 0.00 0.00 0.00 0.00 0.00 0.00 0.00 0.00 0.00 0.00 0.00 0.00 0.00 0.00 0.00 0.00 0.00 0.00 0.00 0.00 0.00 0.00 0.00 0.00 0.00
0.00 0.00 0.00 0.00 0.00 0.00 0.00 0.00 0.00 0.00 0.00 0.00 0.00 0.00 0.00 0.00 0.00 0.00 0.00 0.00 0.00 0.00 0.00 0.00 0.00 0.00 0.00 0.00 0.00 0.00 0.00 0.00 0.00 0.00 0.00 0.00 0.00 0.00 0.00 0.00 0.00 0.00 0.00
0.01 0.00 0.00 0.00 0.00 0.00 0.00 0.00 0.00 0.00 0.00 0.00 0.00 0.00 0.00 0.00 0.00 0.00 0.00 0.00 0.00 0.00 0.00 0.00 0.00 0.00 0.00 0.00 0.00 0.00 0.00 0.00 0.00 0.00 0.00 0.00 0.00 0.00 0.00 0.00 0.00 0.00 0.00
0.01 0.01 0.00 0.00 0.00 0.00 0.00 0.00 0.00 0.00 0.00 0.00 0.00 0.00 0.00 0.00 0.00 0.00 0.00 0.00 0.00 0.00 0.00 0.00 0.00 0.00 0.00 0.00 0.00 0.00 0.00 0.00 0.00 0.00 0.00 0.00 0.00 0.00 0.00 0.00 0.00 0.00 0.00
0.03 0.01 0.00 0.00 0.00 0.00 0.00 0.00 0.00 0.00 0.00 0.00 0.00 0.00 0.00 0.00 0.00 0.00 0.00 0.00 0.00 0.00 0.00 0.00 0.00 0.00 0.00 0.00 0.00 0.00 0.00 0.00 0.00 0.00 0.00 0.00 0.00 0.00 0.00 0.00 0.00 0.00 0.00
0.01 0.00 0.00 0.00 0.00 0.00 0.00 0.00 0.00 0.00 0.00 0.00 0.00 0.00 0.00 0.00 0.00 0.00 0.00 0.00 0.00 0.00 0.00 0.00 0.00 0.00 0.00 0.00 0.00 0.00 0.00 0.00 0.00 0.00 0.00 0.00 0.00 0.00 0.00 0.00 0.00 0.00 0.00
0.00 0.00 0.00 0.00 0.00 0.00 0.00 0.00 0.00 0.00 0.00 0.00 0.00 0.00 0.00 0.00 0.00 0.00 0.00 0.00 0.00 0.00 0.00 0.00 0.00 0.00 0.00 0.00 0.00 0.00 0.00 0.00 0.00 0.00 0.00 0.00 0.00 0.00 0.00 0.00 0.00 0.00 0.00
0.00 0.00 0.00 0.00 0.00 0.00 0.00 0.00 0.00 0.00 0.00 0.00 0.00 0.00 0.00 0.00 0.00 0.00 0.00 0.00 0.00 0.00 0.00 0.00 0.00 0.00 0.00 0.00 0.00 0.00 0.00 0.00 0.00 0.00 0.00 0.00 0.00 0.00 0.00 0.00 0.00 0.00 0.00
0.01 0.00 0.00 0.00 0.00 0.00 0.00 0.00 0.00 0.00 0.00 0.00 0.00 0.00 0.00 0.00 0.00 0.00 0.00 0.00 0.00 0.00 0.00 0.00 0.00 0.00 0.00 0.00 0.00 0.00 0.00 0.00 0.00 0.00 0.00 0.00 0.00 0.00 0.00 0.00 0.00 0.00 0.00
0.02 0.01 0.00 0.00 0.00 0.00 0.00 0.00 0.00 0.00 0.00 0.00 0.00 0.00 0.00 0.00 0.00 0.00 0.00 0.00 0.00 0.00 0.00 0.00 0.00 0.00 0.00 0.00 0.00 0.00 0.00 0.00 0.00 0.00 0.00 0.00 0.00 0.00 0.00 0.00 0.00 0.00 0.00
0.00 0.00 0.00 0.00 0.00 0.00 0.00 0.00 0.00 0.00 0.00 0.00 0.00 0.00 0.00 0.00 0.00 0.00 0.00 0.00 0.00 0.00 0.00 0.00 0.00 0.00 0.00 0.00 0.00 0.00 0.00 0.00 0.00 0.00 0.00 0.00 0.00 0.00 0.00 0.00 0.00 0.00 0.00
0.00 0.00 0.00 0.00 0.00 0.00 0.00 0.00 0.00 0.00 0.00 0.00 0.00 0.00 0.00 0.00 0.00 0.00 0.00 0.00 0.00 0.00 0.00 0.00 0.00 0.00 0.00 0.00 0.00 0.00 0.00 0.00 0.00 0.00 0.00 0.00 0.00 0.00 0.00 0.00 0.00 0.00 0.00
0.00 0.00 0.00 0.00 0.00 0.00 0.00 0.00 0.00 0.00 0.00 0.00 0.00 0.00 0.00 0.00 0.00 0.00 0.00 0.00 0.00 0.00 0.00 0.00 0.00 0.00 0.00 0.00 0.00 0.00 0.00 0.00 0.00 0.00 0.00 0.00 0.00 0.00 0.00 0.00 0.00 0.00 0.00
0.00 0.00 0.00 0.00 0.00 0.00 0.00 0.00 0.00 0.00 0.00 0.00 0.00 0.00 0.00 0.00 0.00 0.00 0.00 0.00 0.00 0.00 0.00 0.00 0.00 0.00 0.00 0.00 0.00 0.00 0.00 0.00 0.00 0.00 0.00 0.00 0.00 0.00 0.00 0.00 0.00 0.00 0.00
0.00 0.00 0.00 0.00 0.00 0.00 0.00 0.00 0.00 0.00 0.00 0.00 0.00 0.00 0.00 0.00 0.00 0.00 0.00 0.00 0.00 0.00 0.00 0.00 0.00 0.00 0.00 0.00 0.00 0.00 0.00 0.00 0.00 0.00 0.00 0.00 0.00 0.00 0.00 0.00 0.00 0.00 0.00
0.00 0.00 0.00 0.00 0.00 0.00 0.00 0.00 0.00 0.00 0.00 0.00 0.00 0.00 0.00 0.00 0.00 0.00 0.00 0.00 0.00 0.00 0.00 0.00 0.00 0.00 0.00 0.00 0.00 0.00 0.00 0.00 0.00 0.00 0.00 0.00 0.00 0.00 0.00 0.00 0.00 0.00 0.00
0.00 0.00 0.00 0.00 0.00 0.00 0.00 0.00 0.00 0.00 0.00 0.00 0.00 0.00 0.00 0.00 0.00 0.00 0.00 0.00 0.00 0.00 0.00 0.00 0.00 0.00 0.00 0.00 0.00 0.00 0.00 0.00 0.00 0.00 0.00 0.00 0.00 0.00 0.00 0.00 0.00 0.00 0.01
MSLP
1022.63 1022.90 1023.50 1023.64 1023.88 1024.18 1024.24 1024.46 1024.66 1024.80 1025.19 1025.28 1025.53 1025.73 1025.77 1025.89 1025.89 1025.59 1025.63 1026.84 1026.56 1026.33 1026.34 1026.42 1026.60 1026.80 1026.98 1027.09 1027.15 1027.17 1027.18 1027.07 1026.93 1026.84 1026.75 1026.75 1026.74 1026.69 1026.62 1026.56 1026.46 1026.28 1026.03
1022.76 1023.11 1023.57 1023.68 1024.12 1023.97 1024.05 1024.31 1024.60 1024.80 1024.85 1024.97 1025.33 1025.81 1025.90 1025.86 1026.21 1026.17 1025.89 1026.59 1027.10 1026.83 1026.89 1026.78 1026.80 1026.98 1027.08 1027.18 1027.30 1027.22 1027.17 1027.10 1027.02 1026.92 1026.81 1026.65 1026.70 1026.66 1026.58 1026.49 1026.47 1026.31 1026.07
1023.10 1023.08 1023.19 1023.66 1023.89 1024.10 1024.28 1024.91 1024.91 1024.96 1025.11 1025.20 1025.55 1025.73 1025.94 1026.31 1026.36 1026.42 1026.11 1026.23 1026.48 1027.42 1027.56 1027.50 1027.52 1027.48 1027.46 1027.45 1027.38 1027.31 1027.20 1027.14 1027.05 1026.89 1026.75 1026.65 1026.72 1026.66 1026.55 1026.56 1026.43 1026.30 1026.07
1022.96 1023.10 1023.22 1023.64 1023.92 1024.18 1023.95 1024.39 1024.40 1024.91 1025.07 1025.26 1025.65 1025.75 1026.03 1026.33 1026.69 1026.59 1026.53 1026.41 1026.43 1026.39 1027.62 1027.95 1027.90 1027.86 1027.77 1027.68 1027.62 1027.47 1027.35 1027.28 1027.18 1027.00 1026.77 1026.55 1026.54 1026.34 1026.38 1026.42 1026.30 1026.14 1025.92
1022.74 1022.89 1023.00 1023.80 1024.12 1023.92 1024.03 1024.21 1024.40 1025.05 1025.03 1025.42 1025.80 1025.76 1026.01 1026.20 1026.49 1026.47 1026.74 1026.86 1027.06 1026.91 1026.80 1028.03 1028.12 1028.18 1028.18 1028.04 1027.90 1027.78 1027.63 1027.48 1027.32 1027.14 1026.92 1026.71 1026.49 1026.28 1026.13 1026.10 1026.07 1025.93 1025.68
1022.74 1023.12 1023.23 1023.96 1023.87 1023.76 1024.04 1024.21 1024.42 1025.21 1025.29 1025.44 1025.82 1026.14 1026.35 1026.36 1026.38 1026.40 1026.59 1026.74 1027.01 1027.26 1027.23 1027.37 1027.23 1027.37 1028.25 1028.41 1028.23 1028.03 1027.88 1027.69 1027.55 1027.40 1027.22 1027.02 1026.74 1026.53 1026.34 1026.06 1025.82 1025.61 1025.34
1022.66 1022.92 1022.96 1023.82 1023.77 1023.65 1023.93 1024.34 1024.75 1025.34 1025.60 1026.02 1026.08 1026.00 1026.16 1026.56 1026.52 1026.37 1026.53 1026.50 1026.96 1027.31 1027.48 1027.40 1027.37 1027.27 1027.28 1028.03 1028.35 1028.37 1028.17 1028.00 1027.82 1027.60 1027.40 1027.15 1026.82 1026.58 1026.36 1026.00 1025.56 1025.25 1024.97
1022.37 1022.44 1022.85 1023.16 1023.65 1023.85 1024.10 1024.51 1024.90 1025.11 1025.53 1026.08 1025.72 1025.43 1024.54 1025.05 1025.88 1026.40 1026.45 1026.75 1027.09 1027.13 1027.17 1027.51 1027.63 1027.61 1027.55 1027.28 1027.65 1028.33 1028.40 1028.32 1028.01 1027.75 1027.50 1027.23 1026.90 1026.52 1026.13 1025.69 1025.25 1024.84 1024.56
1022.02 1022.15 1022.73 1022.90 1023.44 1023.66 1023.83 1024.34 1024.67 1024.95 1025.16 1025.87 1026.07 1025.61 1024.27 1023.96 1024.56 1025.05 1026.36 1026.47 1026.83 1026.87 1026.89 1027.03 1027.28 1027.50 1027.53 1027.47 1027.51 1027.50 1028.23 1028.35 1028.19 1027.90 1027.60 1027.29 1026.94 1026.54 1026.10 1025.62 1025.14 1024.68 1024.25
1021.69 1022.07 1022.53 1022.95 1023.11 1023.27 1023.64 1024.15 1024.54 1024.90 1025.03 1025.10 1025.68 1025.66 1025.50 1025.16 1024.69 1024.30 1025.26 1025.88 1026.47 1026.56 1026.51 1026.84 1026.70 1026.95 1027.23 1027.18 1027.32 1027.78 1028.33 1028.44 1028.33 1028.02 1027.68 1027.32 1026.94 1026.48 1025.99 1025.51 1025.01 1024.46 1023.95
1021.81 1021.91 1022.44 1022.88 1023.12 1023.39 1023.78 1024.15 1024.82 1025.49 1025.35 1024.60 1024.68 1024.89 1025.29 1025.33 1025.51 1025.27 1024.48 1024.40 1024.98 1025.54 1025.93 1026.24 1026.55 1026.70 1026.69 1026.85 1027.01 1027.23 1028.04 1028.23 1028.10 1027.84 1027.53 1027.17 1026.77 1026.29 1025.80 1025.32 1024.80 1024.26 1023.79
1022.27 1022.20 1022.26 1022.65 1022.90 1023.19 1023.81 1024.50 1025.42 1025.46 1025.15 1025.22 1024.51 1024.71 1024.86 1024.82 1024.70 1024.90 1024.76 1024.62 1024.64 1025.11 1025.53 1026.04 1026.21 1026.22 1026.32 1026.61 1026.89 1027.71 1027.87 1027.84 1027.69 1027.60 1027.30 1026.96 1026.56 1026.09 1025.59 1025.11 1024.65 1024.11 1023.59
1021.88 1021.96 1022.51 1022.75 1023.19 1023.39 1023.84 1024.64 1025.28 1025.37 1025.45 1024.88 1024.81 1024.84 1024.91 1024.93 1025.11 1025.16 1025.12 1024.75 1024.71 1024.85 1025.07 1025.68 1025.94 1025.99 1026.14 1026.38 1026.54 1027.28 1027.40 1027.31 1027.29 1027.26 1027.02 1026.65 1026.24 1025.79 1025.34 1024.80 1024.28 1023.73 1023.21
1021.40 1021.75 1022.72 1023.18 1023.36 1023.77 1024.18 1024.94 1025.28 1025.12 1025.03 1024.95 1024.99 1025.03 1024.85 1024.90 1025.07 1025.19 1025.07 1025.04 1024.75 1024.57 1024.39 1024.41 1024.77 1025.34 1025.79 1026.09 1026.36 1027.06 1026.70 1026.58 1026.59 1026.65 1026.54 1026.18 1025.79 1025.37 1024.83 1024.32 1023.83 1023.31 1022.71
1020.83 1021.67 1022.48 1022.77 1023.40 1023.93 1024.19 1024.77 1024.83 1024.62 1024.84 1024.77 1024.95 1025.05 1025.02 1024.94 1025.01 1025.20 1025.33 1025.27 1025.12 1024.72 1024.14 1024.07 1024.30 1024.71 1025.46 1025.97 1026.00 1026.30 1026.25 1026.01 1026.14 1026.18 1025.92 1025.66 1025.28 1024.82 1024.36 1023.89 1023.36 1022.88 1022.35
1020.29 1021.04 1021.91 1022.53 1023.46 1024.01 1024.41 1024.07 1024.21 1024.41 1024.61 1024.83 1024.87 1024.79 1024.84 1024.74 1024.78 1024.92 1024.97 1025.00 1025.21 1024.94 1024.27 1024.22 1024.10 1024.42 1025.19 1025.56 1025.62 1025.84 1025.66 1025.60 1025.28 1025.12 1025.04 1024.90 1024.64 1024.33 1023.95 1023.44 1022.88 1022.41 1022.04
1019.76 1020.55 1021.09 1021.91 1023.21 1023.71 1023.43 1023.67 1024.02 1024.04 1024.63 1024.70 1024.71 1024.73 1024.51 1024.60 1024.59 1024.56 1024.70 1024.81 1024.78 1024.67 1024.08 1023.83 1023.96 1024.05 1024.63 1025.23 1025.19 1025.05 1025.01 1024.72 1024.22 1024.15 1024.19 1024.19 1024.04 1023.74 1023.27 1022.77 1022.34 1021.89 1021.44
1019.91 1020.75 1021.21 1021.99 1022.47 1022.61 1022.77 1023.51 1023.75 1024.40 1024.59 1024.74 1024.27 1024.23 1024.21 1024.19 1024.33 1024.26 1024.16 1024.23 1024.24 1024.12 1023.94 1023.48 1023.67 1023.77 1023.91 1024.23 1024.65 1024.76 1024.46 1024.07 1023.60 1023.33 1023.48 1023.52 1023.32 1022.92 1022.53 1022.11 1021.70 1021.24 1020.79
1019.73 1020.35 1020.90 1021.29 1021.60 1022.29 1022.61 1023.24 1023.56 1024.21 1024.68 1024.51 1023.73 1023.52 1023.56 1023.65 1023.56 1023.60 1023.55 1023.61 1023.53 1023.45 1023.52 1023.57 1023.37 1023.52 1023.51 1023.75 1023.87 1023.92 1023.76 1023.32 1022.85 1022.60 1022.49 1022.29 1022.24 1022.02 1021.77 1021.36 1020.93 1020.47 1020.06
1019.40 1019.95 1020.46 1020.97 1021.51 1021.88 1022.52 1023.44 1023.74 1024.27 1024.05 1023.63 1023.52 1023.27 1023.02 1022.91 1022.85 1023.01 1022.90 1022.83 1022.99 1023.01 1023.00 1023.07 1022.96 1022.86 1022.93 1023.09 1023.39 1023.28 1022.71 1022.55 1022.15 1021.94 1021.57 1021.27 1021.24 1020.82 1020.52 1020.18 1019.91 1019.53 1019.20
1019.24 1020.15 1020.61 1021.28 1021.83 1022.28 1023.11 1023.51 1023.82 1023.96 1023.56 1023.16 1022.88 1022.58 1022.29 1022.13 1022.36 1022.31 1022.24 1022.07 1022.31 1022.47 1022.61 1022.53 1022.32 1022.27 1022.28 1022.39 1022.50 1022.67 1022.61 1022.15 1021.81 1021.36 1020.77 1020.43 1020.11 1019.61 1018.87 1018.62 1018.48 1018.41 1018.47
1019.61 1020.23 1020.74 1021.24 1021.94 1023.13 1023.32 1023.64 1024.09 1023.75 1023.23 1022.69 1022.15 1021.81 1021.51 1021.55 1021.58 1022.00 1021.96 1021.81 1021.93 1021.91 1022.14 1022.27 1021.98 1021.79 1021.84 1022.07 1022.28 1022.48 1022.33 1021.94 1021.00 1020.79 1020.62 1020.26 1019.78 1018.96 1018.28 1017.76 1017.71 1018.03 1017.93
1020.02 1020.53 1021.10 1021.59 1022.23 1022.50 1023.06 1023.67 1023.82 1023.62 1023.16 1022.38 1021.78 1021.34 1020.88 1020.55 1020.55 1020.91 1021.24 1021.56 1021.72 1021.91 1022.12 1022.08 1021.66 1021.52 1021.51 1021.75 1022.12 1022.22 1022.04 1021.66 1021.19 1020.85 1020.54 1019.51 1019.09 1018.43 1017.70 1017.13 1017.32 1017.52 1017.33
1020.21 1020.64 1021.19 1021.56 1021.79 1022.28 1022.86 1023.32 1023.33 1023.08 1022.48 1021.64 1021.11 1020.66 1020.20 1019.86 1019.66 1019.70 1020.14 1020.25 1020.71 1020.85 1021.52 1021.77 1021.52 1021.18 1021.16 1021.49 1021.93 1022.05 1022.00 1021.63 1020.99 1020.20 1019.85 1018.97 1018.56 1017.98 1017.52 1017.10 1016.83 1016.78 1016.86
1020.44 1020.98 1021.32 1021.57 1021.83 1022.03 1022.51 1022.74 1022.85 1022.30 1021.61 1020.90 1020.44 1019.97 1019.53 1019.20 1019.03 1019.11 1019.40 1019.15 1019.22 1019.36 1019.93 1020.55 1020.90 1021.19 1021.53 1021.98 1022.42 1022.18 1021.62 1021.06 1020.21 1019.56 1019.29 1018.84 1018.49 1018.03 1017.58 1016.83 1016.02 1016.23 1016.13
1020.70 1021.15 1021.53 1021.82 1021.90 1022.11 1021.84 1021.98 1022.32 1021.90 1021.04 1020.31 1019.89 1019.31 1018.92 1018.83 1018.75 1018.49 1018.57 1018.53 1018.41 1018.35 1018.67 1019.42 1020.33 1020.81 1021.24 1021.15 1021.93 1021.93 1021.17 1020.44 1019.80 1019.17 1018.88 1018.91 1018.37 1018.11 1017.31 1016.76 1016.04 1015.93 1015.34
Thickness
5610 5608 5605 5605 5604 5603 5604 5602 5601 5598 5594 5592 5587 5582 5580 5577 5573 5572 5568 5558 5555 5551 5548 5545 5542 5537 5533 5529 5526 5523 5521 5521 5520 5519 5518 5518 5518 5518 5518 5519 5519 5520 5522
5606 5605 5602 5603 5600 5602 5602 5599 5596 5592 5592 5589 5585 5578 5574 5570 5563 5558 5556 5549 5543 5541 5536 5533 5530 5526 5523 5520 5516 5515 5514 5513 5511 5510 5509 5509 5507 5507 5507 5508 5508 5509 5511
5601 5604 5604 5601 5600 5599 5599 5591 5589 5588 5584 5582 5577 5573 5566 5559 5554 5548 5547 5542 5539 5529 5524 5520 5517 5514 5512 5509 5507 5506 5505 5504 5503 5502 5501 5500 5498 5497 5496 5495 5496 5497 5498
5600 5601 5602 5599 5598 5596 5598 5591 5589 5582 5579 5576 5569 5564 5558 5552 5544 5542 5538 5535 5530 5526 5517 5510 5506 5503 5501 5499 5497 5495 5494 5492 5491 5490 5490 5489 5488 5487 5486 5485 5484 5484 5485
5601 5601 5602 5596 5594 5594 5592 5588 5584 5575 5574 5568 5560 5557 5551 5545 5540 5536 5529 5524 5518 5515 5510 5502 5497 5493 5490 5488 5485 5483 5480 5479 5477 5475 5473 5472 5472 5471 5471 5470 5471 5471 5472
5600 5597 5597 5591 5591 5591 5587 5582 5579 5569 5565 5559 5552 5545 5539 5536 5531 5525 5520 5514 5508 5501 5497 5492 5489 5486 5478 5472 5469 5466 5463 5460 5457 5454 5452 5451 5450 5449 5448 5448 5449 5451 5454
5597 5595 5596 5587 5586 5585 5581 5576 5569 5560 5554 5545 5538 5536 5533 5525 5520 5514 5509 5503 5496 5489 5484 5480 5476 5472 5468 5461 5454 5448 5444 5440 5436 5432 5429 5426 5425 5424 5422 5423 5425 5428 5430
5595 5597 5591 5587 5579 5575 5573 5565 5560 5555 5546 5535 5533 5531 5533 5522 5517 5506 5498 5492 5484 5478 5474 5468 5462 5456 5450 5445 5440 5431 5425 5418 5414 5410 5406 5402 5398 5396 5396 5396 5397 5401 5404
5595 5594 5586 5581 5574 5569 5565 5558 5554 5547 5540 5529 5522 5520 5526 5524 5512 5503 5489 5481 5474 5467 5462 5456 5449 5441 5434 5427 5421 5414 5407 5397 5391 5384 5378 5373 5368 5365 5363 5363 5365 5369 5374
5592 5586 5580 5573 5569 5563 5558 5551 5545 5538 5531 5525 5516 5511 5507 5503 5501 5496 5483 5475 5464 5456 5450 5441 5435 5427 5419 5410 5401 5393 5381 5372 5362 5354 5345 5339 5334 5332 5332 5332 5335 5339 5344
5583 5579 5572 5565 5560 5554 5548 5542 5533 5521 5518 5520 5513 5506 5497 5491 5482 5477 5477 5470 5459 5450 5439 5429 5419 5409 5401 5393 5381 5369 5359 5346 5334 5326 5320 5314 5309 5307 5307 5308 5311 5314 5318
5574 5572 5567 5559 5554 5548 5540 5531 5520 5514 5510 5505 5505 5496 5489 5483 5478 5469 5463 5457 5449 5436 5425 5412 5402 5393 5383 5372 5360 5347 5331 5323 5312 5303 5297 5292 5288 5285 5285 5285 5287 5291 5294
5570 5567 5558 5551 5545 5541 5533 5523 5514 5506 5499 5497 5491 5484 5476 5469 5461 5453 5446 5441 5432 5422 5411 5398 5385 5375 5363 5352 5340 5328 5314 5305 5296 5286 5279 5273 5269 5267 5265 5266 5267 5269 5273
5567 5562 5552 5543 5537 5531 5524 5514 5504 5498 5492 5487 5478 5470 5463 5456 5447 5438 5431 5423 5417 5409 5398 5387 5375 5362 5348 5335 5323 5309 5299 5292 5285 5274 5265 5259 5256 5253 5252 5253 5254 5255 5257
5563 5555 5546 5538 5527 5519 5514 5505 5496 5492 5482 5474 5465 5456 5448 5441 5433 5424 5415 5407 5399 5391 5386 5372 5360 5345 5331 5317 5308 5298 5289 5282 5272 5262 5255 5249 5245 5242 5241 5240 5242 5242 5244
5558 5550 5539 5530 5519 5509 5502 5498 5491 5482 5471 5460 5451 5443 5436 5430 5422 5413 5404 5394 5382 5374 5371 5356 5344 5330 5315 5303 5296 5287 5279 5271 5263 5255 5248 5242 5237 5233 5231 5230 5231 5232 5233
5555 5546 5538 5528 5514 5504 5499 5491 5479 5470 5457 5447 5439 5431 5426 5417 5409 5401 5390 5379 5369 5359 5354 5346 5330 5318 5309 5296 5287 5278 5270 5263 5256 5249 5242 5236 5230 5227 5225 5224 5224 5225 5226
5545 5536 5527 5517 5509 5502 5492 5478 5468 5454 5444 5432 5430 5423 5415 5407 5397 5387 5377 5367 5357 5347 5337 5333 5319 5309 5300 5289 5279 5269 5262 5255 5250 5244 5236 5229 5224 5221 5219 5219 5219 5219 5221
5536 5528 5518 5510 5502 5489 5478 5465 5456 5443 5428 5424 5423 5416 5407 5396 5387 5376 5367 5356 5345 5336 5325 5315 5310 5299 5291 5281 5274 5264 5257 5250 5244 5240 5233 5228 5222 5217 5214 5213 5214 5215 5217
5528 5519 5509 5499 5488 5479 5467 5451 5441 5427 5422 5418 5410 5403 5395 5386 5377 5365 5356 5346 5334 5322 5312 5305 5300 5293 5284 5275 5265 5258 5255 5245 5240 5234 5229 5225 5220 5217 5214 5212 5212 5213 5214
5517 5504 5495 5484 5472 5461 5449 5440 5426 5417 5413 5407 5400 5393 5385 5376 5365 5354 5346 5336 5324 5313 5303 5297 5292 5286 5278 5270 5261 5252 5244 5239 5233 5229 5227 5221 5217 5215 5216 5215 5214 5212 5211
5502 5491 5482 5472 5459 5445 5436 5425 5413 5408 5403 5398 5392 5385 5376 5368 5356 5342 5332 5323 5313 5306 5296 5288 5284 5276 5270 5261 5252 5243 5236 5231 5233 5224 5220 5216 5211 5212 5212 5212 5211 5207 5207
5486 5476 5465 5455 5442 5434 5422 5411 5401 5395 5390 5386 5379 5372 5366 5357 5348 5335 5323 5309 5302 5293 5283 5277 5274 5268 5261 5252 5242 5234 5229 5225 5222 5217 5213 5215 5211 5209 5208 5210 5207 5204 5204
5470 5461 5449 5439 5431 5419 5408 5397 5390 5384 5379 5375 5368 5361 5354 5347 5337 5327 5311 5305 5296 5287 5276 5266 5262 5257 5252 5243 5233 5226 5220 5216 5215 5214 5210 5211 5209 5207 5203 5202 5204 5203 5201
5455 5444 5433 5424 5415 5407 5394 5385 5377 5375 5371 5365 5357 5349 5341 5332 5323 5312 5301 5298 5291 5283 5272 5264 5256 5248 5240 5231 5221 5215 5213 5212 5213 5213 5207 5206 5201 5201 5196 5198 5202 5201 5201
5438 5426 5416 5406 5398 5391 5386 5376 5363 5359 5358 5353 5346 5337 5328 5317 5303 5299 5292 5288 5285 5278 5266 5260 5248 5238 5230 5225 5214 5208 5207 5207 5207 5208 5204 5199 5198 5194 5195 5191 5195 5195 5199